Weather History for Decatur, TX

Change the Weather History Date:

Saturday, February 11, 2012

  Actual Average (KDTO) Record (KDTO)
Temperature  
Mean Temperature 30 °F -  
Max Temperature 33 °F 56 °F 71 °F (2008)
Min Temperature 26 °F 35 °F 18 °F (2011)
Degree Days  
Heating Degree Days 36    
Moisture  
Dew Point 13 °F    
Average Humidity 50    
Maximum Humidity 75    
Minimum Humidity 35    
Precipitation  
Precipitation 0.00 in - - ()
Sea Level Pressure  
Sea Level Pressure 30.53 in    
Wind  
Wind Speed 8 mph (NNE)    
Max Wind Speed 22 mph    
Max Gust Speed 28 mph    
Visibility 10 miles    
Events      
Averages and records for this station are not official NWS values.
T = Trace of Precipitation, MM = Missing Value Source: NWS Daily Summary

Daily Weather History Graph

Daily Weather History Graph

Search for Another Location

Airport:

Trip Planner

Search our weather history database for the weather conditions in past years. The results will help you decide how hot, cold, wet, or windy it might be!

Date:

Astronomy

Feb. 11, 2012 Rise Set
Actual Time 7:18 AM CST 6:11 PM CST
Civil Twilight 6:52 AM CST 6:36 PM CST
Nautical Twilight 6:23 AM CST 7:06 PM CST
Astronomical Twilight 5:54 AM CST 7:34 PM CST
Moon 10:41 PM CST (2/11) 9:18 AM CST (2/11)
Length of Visible Light 11h 43m
Length of Day
10h 52m
Waning Gibbous, 82% of the Moon is Illuminated
Feb 11
Waning Gibbous
Feb 14
Last Quarter
Feb 21
New
Feb 29
First Quarter
Mar 8
Full

Hourly Weather History & Observations

Time (CST) Temp. Windchill Dew Point Humidity Pressure Visibility Wind Dir Wind Speed Gust Speed Precip Events Conditions
12:15 AM 30.2 °F 24.3 °F 23.0 °F 75% 30.39 in 10.0 mi NNE 5.8 mph - N/A   Clear
12:35 AM 30.2 °F 25.4 °F 21.2 °F 69% 30.39 in 10.0 mi North 4.6 mph - N/A   Clear
12:55 AM 30.2 °F 25.4 °F 21.2 °F 69% 30.41 in 10.0 mi North 4.6 mph - N/A   Clear
1:15 AM 30.2 °F 26.7 °F 21.2 °F 69% 30.41 in 10.0 mi North 3.5 mph - N/A   Clear
1:35 AM 30.2 °F - 21.2 °F 69% 30.42 in 10.0 mi Calm Calm - N/A   Clear
1:55 AM 30.2 °F 25.4 °F 21.2 °F 69% 30.43 in 10.0 mi NW 4.6 mph - N/A   Clear
2:15 AM 28.4 °F 23.3 °F 21.2 °F 74% 30.43 in 10.0 mi NNW 4.6 mph - N/A   Clear
2:35 AM 28.4 °F 23.3 °F 21.2 °F 74% 30.43 in 10.0 mi NNW 4.6 mph - N/A   Clear
2:55 AM 28.4 °F 22.2 °F 21.2 °F 74% 30.43 in 10.0 mi North 5.8 mph - N/A   Clear
3:15 AM 28.4 °F 23.3 °F 21.2 °F 74% 30.43 in 10.0 mi North 4.6 mph - N/A   Clear
3:35 AM 28.4 °F - 19.4 °F 69% 30.44 in 10.0 mi Calm Calm - N/A   Clear
3:55 AM 28.4 °F 22.2 °F 19.4 °F 69% 30.44 in 10.0 mi North 5.8 mph - N/A   Clear
4:15 AM 28.4 °F 20.4 °F 19.4 °F 69% 30.44 in 10.0 mi North 8.1 mph - N/A   Clear
4:35 AM 28.4 °F 19.7 °F 19.4 °F 69% 30.45 in 10.0 mi North 9.2 mph - N/A   Clear
4:55 AM 28.4 °F 19.1 °F 17.6 °F 64% 30.46 in 10.0 mi North 10.4 mph 17.3 mph N/A   Clear
5:15 AM 26.6 °F 17.5 °F 17.6 °F 69% 30.47 in 10.0 mi North 9.2 mph - N/A   Clear
5:35 AM 26.6 °F 17.5 °F 15.8 °F 64% 30.49 in 10.0 mi North 9.2 mph - N/A   Scattered Clouds
5:55 AM 26.6 °F 17.5 °F 14.0 °F 59% 30.49 in 10.0 mi North 9.2 mph - N/A   Scattered Clouds
6:15 AM 26.6 °F 16.8 °F 14.0 °F 59% 30.49 in 10.0 mi North 10.4 mph 16.1 mph N/A   Scattered Clouds
10:15 AM 28.4 °F 17.5 °F 10.4 °F 47% 30.60 in 10.0 mi North 13.8 mph 24.2 mph N/A   Scattered Clouds
10:35 AM 28.4 °F 17.0 °F 8.6 °F 43% 30.59 in 10.0 mi NNE 15.0 mph 21.9 mph N/A   Scattered Clouds
10:55 AM 28.4 °F 15.8 °F 6.8 °F 40% 30.59 in 10.0 mi NNE 18.4 mph 24.2 mph N/A   Scattered Clouds
11:15 AM 30.2 °F 18.5 °F 8.6 °F 40% 30.58 in 10.0 mi NNE 17.3 mph 23.0 mph N/A   Clear
11:35 AM 30.2 °F 19.8 °F 5.0 °F 34% 30.58 in 10.0 mi NNE 13.8 mph 25.3 mph N/A   Clear
11:55 AM 30.2 °F 17.1 °F 6.8 °F 37% 30.57 in 10.0 mi North 21.9 mph 27.6 mph N/A   Clear
12:15 PM 32.0 °F 20.8 °F 8.6 °F 38% 30.56 in 10.0 mi NNE 17.3 mph 27.6 mph N/A   Clear
12:35 PM 32.0 °F 22.1 °F 6.8 °F 35% 30.56 in 10.0 mi NNE 13.8 mph 21.9 mph N/A   Clear
12:55 PM 32.0 °F 22.5 °F 6.8 °F 35% 30.57 in 10.0 mi NNE 12.7 mph 17.3 mph N/A   Clear
1:15 PM 32.0 °F 22.5 °F 8.6 °F 38% 30.56 in 10.0 mi NNE 12.7 mph 20.7 mph N/A   Clear
1:35 PM 32.0 °F 23.0 °F 8.6 °F 38% 30.55 in 10.0 mi NNE 11.5 mph 18.4 mph N/A   Clear
1:55 PM 32.0 °F 23.6 °F 8.6 °F 38% 30.56 in 10.0 mi North 10.4 mph 19.6 mph N/A   Clear
2:15 PM 33.8 °F 27.7 °F 8.6 °F 35% 30.55 in 10.0 mi NNE 6.9 mph 18.4 mph N/A   Clear
2:35 PM 33.8 °F 26.4 °F 8.6 °F 35% 30.54 in 10.0 mi NNE 9.2 mph 18.4 mph N/A   Clear
2:55 PM 33.8 °F 25.8 °F 8.6 °F 35% 30.54 in 10.0 mi NNE 10.4 mph - N/A   Clear
3:15 PM 33.8 °F 25.3 °F 10.4 °F 38% 30.54 in 10.0 mi NNE 11.5 mph 16.1 mph N/A   Clear
3:35 PM 33.8 °F 26.4 °F 8.6 °F 35% 30.55 in 10.0 mi NE 9.2 mph - N/A   Clear
3:55 PM 33.8 °F 25.8 °F 10.4 °F 38% 30.55 in 10.0 mi NE 10.4 mph - N/A   Clear
4:15 PM 33.8 °F 25.8 °F 8.6 °F 35% 30.55 in 10.0 mi NE 10.4 mph - N/A   Clear
4:35 PM 32.0 °F 23.6 °F 8.6 °F 38% 30.55 in 10.0 mi NNE 10.4 mph - N/A   Clear
4:55 PM 32.0 °F 22.5 °F 8.6 °F 38% 30.54 in 10.0 mi NNE 12.7 mph 16.1 mph N/A   Clear
5:15 PM 32.0 °F 23.6 °F 8.6 °F 38% 30.54 in 10.0 mi NNE 10.4 mph 17.3 mph N/A   Clear
5:35 PM 32.0 °F 23.0 °F 8.6 °F 38% 30.54 in 10.0 mi NNE 11.5 mph - N/A   Clear
5:55 PM 30.2 °F 21.9 °F 10.4 °F 44% 30.55 in 10.0 mi NNE 9.2 mph - N/A   Clear
6:15 PM 30.2 °F 22.6 °F 10.4 °F 44% 30.56 in 10.0 mi NNE 8.1 mph - N/A   Clear
6:35 PM 30.2 °F 21.9 °F 10.4 °F 44% 30.56 in 10.0 mi NE 9.2 mph - N/A   Clear
6:55 PM 30.2 °F 23.4 °F 10.4 °F 44% 30.56 in 10.0 mi NE 6.9 mph - N/A   Clear
7:15 PM 30.2 °F 24.3 °F 10.4 °F 44% 30.57 in 10.0 mi NE 5.8 mph - N/A   Clear
7:35 PM 28.4 °F 19.7 °F 10.4 °F 47% 30.56 in 10.0 mi NE 9.2 mph - N/A   Clear
7:55 PM 28.4 °F 19.1 °F 10.4 °F 47% 30.56 in 10.0 mi NE 10.4 mph - N/A   Clear
8:15 PM 28.4 °F 20.4 °F 10.4 °F 47% 30.57 in 10.0 mi NE 8.1 mph - N/A   Clear
8:35 PM 28.4 °F 21.2 °F 10.4 °F 47% 30.57 in 10.0 mi NE 6.9 mph - N/A   Clear
8:55 PM 28.4 °F 21.2 °F 12.2 °F 51% 30.58 in 10.0 mi NE 6.9 mph - N/A   Clear
9:15 PM 28.4 °F 22.2 °F 12.2 °F 51% 30.59 in 10.0 mi NE 5.8 mph - N/A   Clear
9:35 PM 26.6 °F 19.1 °F 12.2 °F 55% 30.60 in 10.0 mi NE 6.9 mph - N/A   Clear
9:55 PM 26.6 °F 20.0 °F 12.2 °F 55% 30.59 in 10.0 mi NE 5.8 mph - N/A   Mostly Cloudy
10:15 PM 26.6 °F 20.0 °F 12.2 °F 55% 30.59 in 10.0 mi NE 5.8 mph - N/A   Mostly Cloudy
10:35 PM 26.6 °F 16.8 °F 12.2 °F 55% 30.57 in 10.0 mi NE 10.4 mph - N/A   Overcast
10:55 PM 26.6 °F 17.5 °F 12.2 °F 55% 30.57 in 10.0 mi NE 9.2 mph - N/A   Overcast
11:15 PM 26.6 °F 16.2 °F 10.4 °F 51% 30.59 in 10.0 mi NE 11.5 mph - N/A   Overcast
11:35 PM 28.4 °F 21.2 °F 10.4 °F 47% 30.60 in 10.0 mi NE 6.9 mph - N/A   Overcast
11:55 PM 28.4 °F 20.4 °F 10.4 °F 47% 30.61 in 10.0 mi NE 8.1 mph - N/A   Overcast